sat.trackr.live / text

‹ back to catalog

STARLINK-36522

NORAD 67461 · 2026-008S

PAYLOAD ACTIVE UNKNOWN

§ Identity

Operator
Country
US
Launch date
2026-01-14
Launch site
AFETR
Launch vehicle
Mass (kg)
RCS (m²)

Purposes: comms

External: N2YO · Heavens-Above · Gunter

§ Orbital elements

Epoch: 2026-05-24T22:33:33.888384Z

Period
94.27 min
Inclination
43.0022°
Eccentricity
0.0002029
Mean motion
15.27597680 rev/d
Perigee alt
481.6 km
Apogee alt
484.4 km
Semi-major
6,861.1 km
B*
5.4135e-4
RAAN
134.6106°
Arg perigee
284.2432°
Mean anomaly
75.8194°
Rev number
2,123

§ Raw data

STARLINK-365221 67461U 26008S   26144.93997556  .00014672  00000+0  54135-3 0  99902 67461  43.0022 134.6106 0002029 284.2432  75.8194 15.27597680 21238

JSON: /api/v1/satellites/67461 · /tle

For live sub-satellite position, see the globe view (requires WebGL).

§ Visibility from observer

Set your observer location to see the next 7 days of passes ≥ 10°. The values pass through the URL so the page stays shareable.

No JS? Fill the form by hand. The geolocation button needs JavaScript.